Location: Al Mulaqqa?ah
(24.1833°N, 32.8833°E)
Time: 14:13:15
(UTC+00:00)

BREEZE-M DEB (TANK) - Pass Details

Date: 26 September 2021
Orbit: 355 x 16547 km, 49.4° (Epoch: 19 October)

Event Time Altitude Azimuth Distance (km) Brightness Sun altitude
Rises 16:45:02 0° 314° (NW) 3,740 7.4 -15.5°
Reaches altitude 10° 16:48:29 10° 313° (NW) 1,979 5.9 -16.3°
Maximum altitude 16:52:01 70° 229° (SW) 416 1.8 -17.1°
Enters shadow 16:52:45 40° 157° (SSE) 553 2.1 -17.3°
